Location: Noverd
(38.0910°N, 121.6877°W)
Time: 05:23:58
(UTC+00:00)

CZ-2C R/B - Pass Details

Date: 13 February 2026
Orbit: 663 x 773 km, 98.4° (Epoch: 5 March)

Event Time Altitude Azimuth Distance (km) Brightness Sun altitude
Rises 12:48:00 0° 5° (N) 3,060 5.7 -26.3°
Reaches altitude 10° 12:50:18 10° 359° (N) 2,155 4.8 -25.9°
Enters shadow 12:51:15 16° 354° (N) 1,799 4.4 -25.7°
